Simultaneous Nadir Overpasses (SNOs) Predictions

Prediction of SNOs between GOES-14 and NPP Satellite Orbit:

Table of predicted SNOs for the next 14.0 days since TLE Epoch: 11/21/2025
Index Date Time (GOES-14) GOES-14 Lat,Lon NPP Lat,Lon Distance(km) Time Diff (sec)
1 11/22/2025 08:34:39 -0.06,-108.43 -0.44,-106.77 189.42 80
2 11/23/2025 20:59:16 -0.10,-108.36 -0.91,-112.04 419.20 80
3 11/24/2025 20:37:56 -0.01,-108.36 0.20,-107.54 93.85 80
4 11/26/2025 09:02:25 0.16,-108.41 1.12,-112.78 498.48 80
5 11/27/2025 08:41:04 0.07,-108.40 0.06,-108.27 14.24 80
6 11/29/2025 20:47:01 -0.15,-108.32 -0.30,-109.04 81.94 80
7 11/30/2025 20:25:39 -0.07,-108.31 0.76,-104.53 431.11 80
8 12/02/2025 08:50:09 0.22,-108.36 0.55,-109.77 160.89 80
9 12/03/2025 08:28:48 0.14,-108.35 -0.57,-105.27 351.39 80
10 12/04/2025 20:53:24 -0.30,-108.27 -0.83,-110.53 259.03 80
